Orbital elements:
2020 XV6                                                 Earth MOID = 0.0048 AU
Epoch 2020 Dec. 17.0 TT = JDT 2459200.5                 Veres
M  13.63652              (2000.0)            P               Q
n   0.34278106     Peri.  222.32510     +0.57358613     +0.81307426
a   2.0220482      Node    82.91165     -0.72212457     +0.55927013
e   0.9082457      Incl.    5.75712     -0.38669763     +0.16163898
P   2.88           H   22.8           G   0.15           U   6
Residuals in seconds of arc
201215 703  0.2-  0.1+    201215 L01  0.2+  0.1+    201216 858  0.1+  0.2+
201215 703  0.8+  0.9+    201215 Z99  0.0   0.2+    201216 858  0.2+  0.1+
201215 V06  0.5+  0.8-    201215 L01  0.3+  0.3+    201216 858  0.0   0.1+
201215 V06  1.0-  1.8-    201215 L01  0.3+  0.2+    201216 I52  0.3+  0.1+
201215 V06  0.2-  0.4+    201215 L01  0.3+  0.1+    201216 I52  0.2-  0.2-
201215 I52  0.5+  0.6+    201215 Z99  0.1-  0.3+    201216 I52  0.2-  0.0
201215 I52  0.2+  0.3+    201215 Z99  0.0   0.3+    201216 I52  0.0   0.4-
201215 I52  1.1+  0.4-    201215 L34  0.9-  0.1+    201216 033  0.1-  0.4-
201215 I52  0.2-  0.5-    201215 L34  0.3-  0.6+    201216 033  0.3-  0.6-
201215 474  0.1+  0.3-    201215 J69  0.2-  0.1-    201216 033  0.2-  0.5-
201215 474  0.4+  0.5-    201215 J69  0.1+  0.5+    201216 113  0.1-  0.1-
201215 474  0.1+  0.6-    201215 J69  0.4+  0.6+    201216 113  0.5+  0.1+
201215 474  0.2+  0.2-    201215 958  0.1-  0.5+    201216 113  0.3+  0.3+
201215 L34  0.0   0.4+    201215 958  0.6+  0.5+    201216 K74  0.3+  0.1-
201215 J95  0.1-  0.1+    201215 958  1.0+  0.7-    201216 K74  0.1+  0.4-
201215 J95  0.6-  0.0     201215 595  0.3-  0.1-    201216 K74  0.5+  0.1+
201215 J95  0.3-  0.0     201215 595  0.4+  0.1+    201216 L07  0.1+  0.1+
201215 J95  0.5-  0.1-    201215 595  0.6+  0.4+    201216 L07  0.1+  0.0
201215 L34  0.1+  0.1+    201215 L74  0.5-  1.1-    201216 K87  0.7-  0.1+
201215 L01  0.1+  0.2+    201215 L74  0.7-  0.2+    201216 K87  0.2-  0.3-
201215 L01  0.1+  0.3+    201215 Z80  1.0+  0.9-    201216 L07  0.2+  0.0
201215 L01  0.1+  0.3+    201215 Z80  0.8+  0.1+    201216 K87  0.2+  0.2-
201215 L01  0.4+  0.3+    201216 858  0.2+  0.2+

Ephemeris:
2020 XV6                 a,e,i = 2.02, 0.91, 6                   q = 0.1855
Date    TT    R. A. (2000) Decl.     Delta      r    Elong.  Phase     V
2020 11 16    16 03 16.3 -23 03 24   0.6588  0.3577     9.8   152.0    28.5
...
2020 12 01    16 22 04.2 -25 14 06   0.2667  0.7202     3.8   174.8
...
2020 12 09    17 19 10.8 -28 41 33   0.1000  0.8857     6.8   172.4
...
2020 12 15    00 48 58.3 -00 00 58   0.04783 1.0001   108.0    69.4    18.6
2020 12 16    01 38 36.1 +07 14 33   0.06331 1.0184   121.2    55.7    18.9
2020 12 17    02 08 21.5 +11 21 40   0.08115 1.0366   128.6    47.9    19.2
...
2020 12 23    03 09 04.8 +18 43 21   0.2007  1.1420   138.7    34.7    21.0
...
2020 12 31    03 30 22.9 +20 47 24   0.3685  1.2739   135.9    32.5    22.5
...
2021 01 15    03 49 37.1 +22 10 16   0.6981  1.4993   125.3    32.4    24.3

M. P. C. Staff               (C) Copyright 2020 MPC           M.P.E.C. 2020-Y18




More information about the Iaude mailing list